Flag for Norway Weather past 2 weeks in Mysen, Norway

Now
53 °F

Cool.


Feels Like: 52 °F
Forecast: 36 / 56 °F
Wind: 6 mph from West

Location: Rygge

Current Time: May 23, 2015 at 9:43:40 AM

Latest Report: May 23, 2015 at 9:00 AM


Visibility: 25 mi

Pressure: 29.89 "Hg

Humidity: 56%

Dew point: 38 °F

Location of MysenLocation

Historic Weather in Mysen — Graph

°F

Mysen temperature yesterday

Maximum temperature yesterday: 51 °F (at 4:00 PM)
Minimum temperature yesterday: 47 °F (at 1:00 AM)
Average temperature yesterday: 49 °F

Past Weeks' High & Low Weather Summary

 TemperatureHumidityPressure
High61 °F (May 13, 12:00 PM)98% (May 12, 1:00 AM)30.15 "Hg (May 12, 1:00 AM)
Low35 °F (May 18, 5:00 AM)29% (May 14, 6:00 PM)29.44 "Hg (May 19, 7:00 AM)
Average48 °F71%29.83 "Hg
* Reported May 8 7:00 AM — May 23 7:00 AM, Mysen, Weather by CustomWeather, © 2015

Note: Actual official high and low records may vary slightly from our data, if they occured in-between our weather recording intervals... More about our weather records

Advertising

Mysen weather history for previous 24 hours

 ConditionsComfort  
Time TempWeatherWind HumidityBarometerVisibility
7:00 AM
Sat, May 23
48 °FCool.6 mph65%29.84 "Hg19 mi
6:00 AM46 °FCool.8 mph73%29.82 "Hg17 mi
5:00 AM45 °FQuite cool.8 mph75%29.82 "Hg17 mi
4:00 AM43 °FQuite cool.6 mph71%29.83 "Hg31 mi
3:00 AM43 °FQuite cool.5 mph68%29.83 "Hg31 mi
2:00 AM44 °FQuite cool.6 mph65%29.83 "Hg31 mi
1:00 AM44 °FQuite cool.5 mph65%29.82 "Hg31 mi
12:00 AM46 °FCool.7 mph74%29.80 "Hg31 mi
10:00 PM
Fri, May 22
48 °FOvercast.7 mph85%29.76 "Hg31 mi
9:00 PM49 °FRain. Scattered clouds.6 mph84%29.76 "Hg31 mi
8:00 PM50 °FDrizzle. Overcast.6 mph93%29.77 "Hg8 mi
7:00 PM50 °FRain showers. Low clouds.8 mph95%29.78 "Hg4 mi
6:00 PM51 °FRain showers. Cloudy.10 mph93%29.80 "Hg6 mi
5:00 PM51 °FLow clouds.9 mph90%29.82 "Hg7 mi
4:00 PM51 °FLow clouds.10 mph90%29.85 "Hg7 mi
3:00 PM51 °FLow clouds.9 mph91%29.88 "Hg5 mi
2:00 PM51 °FLow clouds.10 mph91%29.90 "Hg5 mi
1:00 PM51 °FLow clouds.10 mph90%29.93 "Hg6 mi
12:00 PM51 °FLow clouds.8 mph90%29.96 "Hg7 mi
11:00 AM50 °FLow clouds.9 mph88%29.96 "Hg7 mi
10:00 AM51 °FOvercast.9 mph87%29.98 "Hg11 mi
9:00 AM50 °FOvercast.9 mph83%29.99 "Hg12 mi
Weather by CustomWeather, © 2015

See weather overviewHow to use our weather pages